Regional Weather Roundup
Issued by NWS

Home | Current Version | Previous Version | Graphics & Text | Print | Product List | Glossary On
Versions: 1 2 3 4 5 6 7 8 9 10 11 12 13 14 15 16 17 18 19 20 21 22 23 24 25 26 27 28 29 30 31 32 33 34 35 36 37 38 39 40 41 42 43 44 45 46 47 48 49 50
000
ASUS43 KFSD 010802
RWRSD

WEATHER ROUNDUP FOR SOUTH DAKOTA
NATIONAL WEATHER SERVICE SIOUX FALLS SD
300 AM CDT WED JUL 01 2015

NOTE: "FAIR" INDICATES FEW OR NO CLOUDS BELOW 12,000 FEET WITH NO
SIGNIFICANT WEATHER AND/OR OBSTRUCTIONS TO VISIBILITY.


SDZ001>005-009-010-012>017-010900-
NORTHWEST AND NORTH CENTRAL SOUTH DAKOTA

CITY           SKY/WX    TMP DP  RH WIND       PRES   REMARKS
BUFFALO          N/A     63  60  90 SE5       29.85F
FAITH            N/A     60  58  92 NE7       29.89R
MOBRIDGE       MOCLDY    65  64  97 E16       29.86F FOG
$$

SDZ012>016-024>037-041>051-057-063-072>074-010900-
SOUTHWEST AND SOUTH CENTRAL SOUTH DAKOTA

CITY           SKY/WX    TMP DP  RH WIND       PRES   REMARKS
RAPID CTY ARPT CLEAR     67  65  93 E3        29.92F
PIERRE         CLEAR     65  63  93 NE7       29.84S
CUSTER         PTCLDY    60  57  89 NW5       30.10F
ELLSWORTH AFB  PTCLDY    67  65  96 W6        29.91F
PHILIP         CLEAR     66  63  90 S6        29.85F
PINE RIDGE     TSTM      73  57  57 NE8G40    29.96R
WINNER         FAIR      67  61  81 NE5       29.90R THUNDER
$$

SDZ004>011-016>023-039-040-010900-
NORTHEAST SOUTH DAKOTA

CITY           SKY/WX    TMP DP  RH WIND       PRES   REMARKS
ABERDEEN       LGT RAIN  66  64  93 N5        29.92R FOG
WATERTOWN      CLOUDY    64  61  90 CALM      29.92R
BROOKINGS      MOCLDY    64  57  77 SE12      29.91F
SISSETON         N/A     61  60  97 N5        29.93R
$$

SDZ017-020-022-023-036>040-048>070-010900-
SOUTHEAST SOUTH DAKOTA

CITY           SKY/WX    TMP DP  RH WIND       PRES   REMARKS
SIOUX FALLS    LGT RAIN  65  62  90 SE13      29.88F
HURON          CLOUDY    66  66 100 SE6       29.87S FOG
CHAMBERLAIN    CLOUDY    64  64  97 SE6       29.88S
MITCHELL       CLOUDY    66  65  96 E6        29.87F FOG
YANKTON        MOCLDY    64  63  94 E6        29.85F
$$

ABBREVIATIONS USED IN REMARKS
   TC - TEMPERATURE IN CELSIUS
  WCI - WIND CHILL INDEX
   HX - HEAT INDEX
  VSB - VISIBILITY




USA.gov is the U.S. government's official web portal to all federal, state and local government web resources and services.